| time (UTC) | temp F | wind direction | speed MPH | gust MPH | rain 1hr in | rain 24hr in | rain mn in | humidity % | barometer mb |
| 20260901074549 | 0 | 0.0 | 0.0 | 0.00 | 0.00 | 0.00 | 1013.2 | ||
| 20260901073052 | 0 | 0.0 | 0.0 | 0.00 | 0.00 | 0.00 | 1013.3 | ||
| 20260901071543 | 0 | 0.0 | 0.0 | 0.00 | 0.00 | 0.00 | 1013.4 | ||
| 20260901070059 | 0 | 0.0 | 0.0 | 0.00 | 0.00 | 0.00 | 1013.3 | ||
| 20260901064547 | 0 | 0.0 | 0.0 | 0.00 | 0.00 | 0.00 | 1013.3 | ||
| 20260901063047 | 64 | 0 | 0.0 | 2.0 | 0.00 | 0.00 | 0.00 | 92 | 1013.3 |
| 20260901061559 | 0 | 0.0 | 0.0 | 0.00 | 0.00 | 0.00 | 1013.2 | ||
| 20260901060048 | 0 | 0.0 | 0.0 | 0.00 | 0.00 | 0.00 | 1013.2 | ||
| 20260901054554 | 0 | 0.0 | 0.0 | 0.00 | 0.00 | 0.00 | 1013.2 | ||
| 20260901053106 | 0 | 0.0 | 0.0 | 0.00 | 0.00 | 0.00 | 1013.2 | ||
| 20260901051547 | 0 | 0.0 | 0.0 | 0.00 | 0.00 | 0.00 | 1013.0 | ||
| 20260901050053 | 0 | 0.0 | 0.0 | 0.00 | 0.00 | 0.00 | 1013.0 | ||
| 20260901044615 | 0 | 0.0 | 0.0 | 0.00 | 0.00 | 0.00 | 1013.0 | ||
| 20260901043049 | 0 | 0.0 | 0.0 | 0.00 | 0.00 | 0.00 | 1012.9 | ||
| 20260901041549 | 0 | 0.0 | 0.0 | 0.00 | 0.00 | 0.00 | 1012.9 | ||
| 20260901040058 | 67 | 0 | 0.0 | 0.0 | 0.00 | 0.00 | 0.00 | 89 | 1012.9 |
| 20260901034600 | 68 | 0 | 0.0 | 1.0 | 0.00 | 0.00 | 0.00 | 89 | 1012.7 |
| 20260901033049 | 0 | 0.0 | 0.0 | 0.00 | 0.00 | 0.00 | 1012.4 | ||
| 20260901031553 | 0 | 0.0 | 0.0 | 0.00 | 0.00 | 0.00 | 1012.2 | ||
| 20260901030047 | 0 | 0.0 | 0.0 | 0.00 | 0.00 | 0.00 | 1012.1 | ||
| 20260901024551 | 0 | 0.0 | 0.0 | 0.00 | 0.00 | 0.00 | 1011.9 | ||
| 20260901023049 | 0 | 0.0 | 0.0 | 0.00 | 0.00 | 0.00 | 1011.7 | ||
| 20260901021608 | 0 | 0.0 | 0.0 | 0.00 | 0.00 | 0.00 | 1011.6 | ||
| 20260901020106 | 0 | 0.0 | 0.0 | 0.00 | 0.00 | 0.00 | 1011.4 | ||
| 20260901014551 | 0 | 0.0 | 0.0 | 0.00 | 0.00 | 0.00 | 1011.2 | ||
| 20260901013044 | 0 | 0.0 | 0.0 | 0.00 | 0.00 | 0.00 | 1011.4 | ||
| 20260901011549 | 0 | 0.0 | 0.0 | 0.00 | 0.00 | 0.00 | 1011.3 | ||
| 20260901010049 | 0 | 0.0 | 0.0 | 0.00 | 0.00 | 0.00 | 1011.5 | ||
| 20260901004550 | 0 | 0.0 | 0.0 | 0.00 | 0.00 | 0.00 | 1011.6 | ||
| 20260901003054 | 0 | 0.0 | 0.0 | 0.00 | 0.00 | 0.00 | 1011.6 | ||
| 20260901001603 | 0 | 0.0 | 0.0 | 0.00 | 0.00 | 0.00 | 1011.6 | ||
| 20260901000055 | 0 | 0.0 | 0.0 | 0.00 | 0.00 | 0.00 | 1011.8 | ||
| 20260831234600 | 0 | 0.0 | 0.0 | 0.00 | 0.00 | 0.00 | 1011.7 | ||
| 20260831233054 | 0 | 0.0 | 0.0 | 0.00 | 0.00 | 0.00 | 1011.7 | ||
| 20260831231600 | 79 | 0 | 2.0 | 7.0 | 0.00 | 0.00 | 0.00 | 70 | 1011.6 |
| 20260831230058 | 80 | 312 | 3.0 | 7.0 | 0.00 | 0.00 | 0.00 | 69 | 1011.8 |
| 20260831224551 | 80 | 130 | 2.0 | 7.0 | 0.00 | 0.00 | 0.00 | 70 | 1011.9 |
| 20260831223047 | 80 | 277 | 1.0 | 9.0 | 0.00 | 0.00 | 0.00 | 70 | 1012.0 |
| 20260831221543 | 80 | 237 | 3.0 | 11.0 | 0.00 | 0.00 | 0.00 | 69 | 1012.2 |
| 20260831220110 | 81 | 332 | 1.0 | 5.0 | 0.00 | 0.00 | 0.00 | 67 | 1012.3 |
| 20260831214550 | 80 | 336 | 4.0 | 8.0 | 0.00 | 0.00 | 0.00 | 68 | 1012.2 |
| 20260831213049 | 81 | 206 | 3.0 | 9.0 | 0.00 | 0.00 | 0.00 | 67 | 1012.3 |
| 20260831211608 | 81 | 300 | 2.0 | 8.0 | 0.00 | 0.00 | 0.00 | 67 | 1012.4 |
| 20260831210055 | 80 | 257 | 2.0 | 9.0 | 0.00 | 0.00 | 0.00 | 70 | 1012.6 |
| 20260831204549 | 82 | 285 | 2.0 | 7.0 | 0.00 | 0.00 | 0.00 | 66 | 1012.7 |
| 20260831203049 | 82 | 282 | 3.0 | 8.0 | 0.00 | 0.00 | 0.00 | 67 | 1012.7 |
| 20260831201556 | 81 | 229 | 4.0 | 9.0 | 0.00 | 0.00 | 0.00 | 68 | 1012.8 |
| 20260831200054 | 82 | 242 | 2.0 | 7.0 | 0.00 | 0.00 | 0.00 | 68 | 1012.8 |
| 20260831194627 | 80 | 319 | 2.0 | 9.0 | 0.00 | 0.00 | 0.00 | 69 | 1012.7 |
| 20260831193053 | 81 | 292 | 3.0 | 9.0 | 0.00 | 0.00 | 0.00 | 70 | 1012.9 |
| 20260831191553 | 81 | 246 | 2.0 | 8.0 | 0.00 | 0.00 | 0.00 | 69 | 1013.0 |
| 20260831190049 | 80 | 253 | 2.0 | 8.0 | 0.00 | 0.00 | 0.00 | 71 | 1013.0 |
| 20260831184613 | 80 | 269 | 2.0 | 9.0 | 0.00 | 0.00 | 0.00 | 70 | 1013.0 |
| 20260831183100 | 80 | 221 | 4.0 | 8.0 | 0.00 | 0.00 | 0.00 | 71 | 1013.0 |
| 20260831181550 | 79 | 239 | 3.0 | 8.0 | 0.00 | 0.00 | 0.00 | 72 | 1012.9 |
| 20260831180050 | 80 | 271 | 3.0 | 7.0 | 0.00 | 0.00 | 0.00 | 72 | 1012.9 |
| 20260831174600 | 79 | 277 | 3.0 | 7.0 | 0.00 | 0.00 | 0.00 | 72 | 1012.9 |
| 20260831173100 | 79 | 278 | 2.0 | 7.0 | 0.00 | 0.00 | 0.00 | 73 | 1012.7 |
| 20260831171558 | 79 | 204 | 1.0 | 6.0 | 0.00 | 0.00 | 0.00 | 73 | 1012.5 |
| 20260831170057 | 77 | 0 | 0.0 | 5.0 | 0.00 | 0.00 | 0.00 | 76 | 1012.6 |
| 20260831164553 | 76 | 287 | 0.0 | 5.0 | 0.00 | 0.00 | 0.00 | 79 | 1012.8 |
| 20260831163051 | 75 | 287 | 0.0 | 3.0 | 0.00 | 0.00 | 0.00 | 79 | 1012.4 |
| 20260831161554 | 73 | 0 | 2.0 | 5.0 | 0.00 | 0.00 | 0.00 | 81 | 1012.5 |
| 20260831160053 | 73 | 82 | 0.0 | 2.0 | 0.00 | 0.00 | 0.00 | 83 | 1012.5 |
| 20260831154610 | 72 | 315 | 0.0 | 3.0 | 0.00 | 0.00 | 0.00 | 84 | 1012.5 |
| 20260831153059 | 71 | 253 | 0.0 | 3.0 | 0.00 | 0.00 | 0.00 | 85 | 1012.6 |
| 20260831151559 | 71 | 0 | 0.0 | 2.0 | 0.00 | 0.00 | 0.00 | 86 | 1012.4 |
| 20260831150051 | 70 | 0 | 0.0 | 2.0 | 0.00 | 0.00 | 0.00 | 86 | 1012.4 |
| 20260831144600 | 70 | 0 | 0.0 | 0.0 | 0.00 | 0.00 | 0.00 | 90 | 1012.3 |
| 20260831143047 | 69 | 0 | 0.0 | 0.0 | 0.00 | 0.00 | 0.00 | 92 | 1012.3 |
| 20260831141552 | 0 | 0.0 | 0.0 | 0.00 | 0.00 | 0.00 | 1012.1 | ||
| 20260831140049 | 0 | 0.0 | 0.0 | 0.00 | 0.00 | 0.00 | 1011.8 | ||
| 20260831134557 | 67 | 0.0 | 0.0 | 0.00 | 0.00 | 0.00 | 92 | 1011.6 | |
| 20260831133048 | 67 | 0 | 0.0 | 1.0 | 0.00 | 0.00 | 0.00 | 91 | 1011.6 |
| 20260831131552 | 67 | 0 | 0.0 | 1.0 | 0.00 | 0.00 | 0.00 | 91 | 1011.4 |
| 20260831130054 | 68 | 0 | 0.0 | 0.0 | 0.00 | 0.00 | 0.00 | 90 | 1011.3 |
| 20260831124547 | 69 | 0 | 0.0 | 0.0 | 0.00 | 0.00 | 0.00 | 89 | 1011.3 |
| 20260831123053 | 69 | 0 | 0.0 | 0.0 | 0.00 | 0.00 | 0.00 | 89 | 1011.3 |
| 20260831121550 | 70 | 0 | 0.0 | 2.0 | 0.00 | 0.00 | 0.00 | 88 | 1011.2 |
| 20260831120059 | 70 | 0 | 0.0 | 2.0 | 0.00 | 0.00 | 0.00 | 88 | 1011.3 |
| 20260831114549 | 70 | 272 | 0.0 | 2.0 | 0.00 | 0.00 | 0.00 | 89 | 1011.3 |
| 20260831113052 | 0 | 0.0 | 0.0 | 0.00 | 0.00 | 0.00 | 1011.3 | ||
| 20260831111607 | 0 | 0.0 | 0.0 | 0.00 | 0.00 | 0.00 | 1011.3 | ||
| 20260831110130 | 0 | 0.0 | 0.0 | 0.00 | 0.00 | 0.00 | 1011.4 | ||
| 20260831104547 | 0 | 0.0 | 0.0 | 0.00 | 0.00 | 0.00 | 1011.5 | ||
| 20260831103043 | 0 | 0.0 | 0.0 | 0.00 | 0.00 | 0.00 | 1011.5 | ||
| 20260831101552 | 0 | 0.0 | 0.0 | 0.00 | 0.00 | 0.00 | 1011.4 | ||
| 20260831100054 | 0 | 0.0 | 0.0 | 0.00 | 0.00 | 0.00 | 1011.5 | ||
| 20260831094543 | 0 | 0.0 | 0.0 | 0.00 | 0.00 | 0.00 | 1011.5 | ||
| 20260831093055 | 0 | 0.0 | 0.0 | 0.00 | 0.00 | 0.00 | 1011.5 | ||
| 20260831091552 | 0 | 0.0 | 0.0 | 0.00 | 0.00 | 0.00 | 1011.6 | ||
| 20260831090056 | 0 | 0.0 | 0.0 | 0.00 | 0.00 | 0.00 | 1011.5 | ||
| 20260831084557 | 0 | 0.0 | 0.0 | 0.00 | 0.00 | 0.00 | 1011.5 | ||
| 20260831083050 | 0 | 0.0 | 0.0 | 0.00 | 0.00 | 0.00 | 1011.5 | ||
| 20260831081555 | 0 | 0.0 | 0.0 | 0.00 | 0.00 | 0.00 | 1011.5 | ||
| 20260831080053 | 0 | 0.0 | 0.0 | 0.00 | 0.00 | 0.00 | 1011.7 |